Ozona, TX

7:11 PM CDT on April 19, 2018 (GMT -0500)
Ozona Municipal

Weather History for KOZA - January, 2014

Change the Weather History Date:

Thursday, January 30, 2014

  Actual Average Record
Temperature  
Mean Temperature 47 °F -  
Max Temperature 62 °F 63 °F 80 °F (2016)
Min Temperature 32 °F 32 °F 23 °F (2018)
Degree Days  
Heating Degree Days 18    
Moisture  
Dew Point 24 °F    
Average Humidity 48    
Maximum Humidity 75    
Minimum Humidity 27    
Precipitation  
Precipitation 0.00 in - - ()
Sea Level Pressure  
Sea Level Pressure 29.97 in    
Wind  
Wind Speed 15 mph (SSW)    
Max Wind Speed 24 mph    
Max Gust Speed 31 mph    
Visibility 10 miles    
Events      
Averages and records for this station are not official NWS values.
T = Trace of Precipitation, MM = Missing Value Source: NWS Daily Summary

Daily Weather History Graph

Daily Weather History Graph

Search for Another Location

Airport or City:

Astronomy

Jan. 30, 2014 Rise Set
Actual Time 7:37 AM CST 6:19 PM CST
Civil Twilight 7:12 AM CST 6:44 PM CST
Nautical Twilight 6:43 AM CST 7:13 PM CST
Astronomical Twilight 6:14 AM CST 7:42 PM CST
Moon 7:07 AM CST (1/30) 6:28 PM CST (1/30)
Length of Visible Light 11h 32m
Length of Day
10h 41m
Waning Crescent, 0% of the Moon is Illuminated
Jan 30
Waning Crescent
Jan 30
New
Feb 6
First Quarter
Feb 14
Full
Feb 22
Last Quarter

Hourly Weather History & Observations

Time (CST) Temp. Windchill Dew Point Humidity Pressure Visibility Wind Dir Wind Speed Gust Speed Precip Events Conditions
12:15 AM 33.8 °F 23.9 °F 10.4 °F 38% 30.11 in 10.0 mi South 15.0 mph 21.9 mph N/A   Clear
12:35 AM 33.8 °F 22.8 °F 10.4 °F 38% 30.10 in 10.0 mi South 18.4 mph 24.2 mph N/A   Clear
12:55 AM 33.8 °F 22.8 °F 12.2 °F 41% 30.09 in 10.0 mi South 18.4 mph 23.0 mph N/A   Clear
1:15 AM 33.8 °F 23.5 °F 12.2 °F 41% 30.09 in 10.0 mi South 16.1 mph 20.7 mph N/A   Clear
1:35 AM 33.8 °F 24.3 °F 12.2 °F 41% 30.08 in 10.0 mi South 13.8 mph - N/A   Clear
1:55 AM 33.8 °F 24.8 °F 12.2 °F 41% 30.08 in 10.0 mi South 12.7 mph - N/A   Clear
2:15 AM 32.0 °F 22.5 °F 14.0 °F 48% 30.07 in 10.0 mi South 12.7 mph - N/A   Clear
2:35 AM 32.0 °F 21.6 °F 14.0 °F 48% 30.06 in 10.0 mi South 15.0 mph - N/A   Clear
2:55 AM 32.0 °F 22.5 °F 14.0 °F 48% 30.05 in 10.0 mi South 12.7 mph 16.1 mph N/A   Clear
3:15 AM 32.0 °F 22.1 °F 14.0 °F 48% 30.05 in 10.0 mi South 13.8 mph - N/A   Clear
3:35 AM 32.0 °F 22.5 °F 14.0 °F 48% 30.04 in 10.0 mi South 12.7 mph 19.6 mph N/A   Clear
3:55 AM 32.0 °F 22.1 °F 14.0 °F 48% 30.03 in 10.0 mi South 13.8 mph 19.6 mph N/A   Clear
4:15 AM 32.0 °F 21.6 °F 15.8 °F 51% 30.03 in 10.0 mi South 15.0 mph - N/A   Clear
4:35 AM 32.0 °F 21.2 °F 15.8 °F 51% 30.02 in 10.0 mi South 16.1 mph 19.6 mph N/A   Clear
4:55 AM 32.0 °F 20.8 °F 17.6 °F 55% 30.02 in 10.0 mi South 17.3 mph 20.7 mph N/A   Clear
5:15 AM 32.0 °F 21.6 °F 17.6 °F 55% 30.01 in 10.0 mi South 15.0 mph 21.9 mph N/A   Clear
5:35 AM 32.0 °F 23.0 °F 17.6 °F 55% 30.01 in 10.0 mi South 11.5 mph - N/A   Clear
5:55 AM 32.0 °F 21.6 °F 19.4 °F 60% 30.02 in 10.0 mi South 15.0 mph 20.7 mph N/A   Clear
6:15 AM 32.0 °F 21.6 °F 19.4 °F 60% 30.02 in 10.0 mi South 15.0 mph 18.4 mph N/A   Clear
6:35 AM 32.0 °F 21.6 °F 19.4 °F 60% 30.02 in 10.0 mi South 15.0 mph 20.7 mph N/A   Clear
6:55 AM 32.0 °F 21.2 °F 21.2 °F 64% 30.02 in 10.0 mi South 16.1 mph 24.2 mph N/A   Clear
7:15 AM 32.0 °F 21.2 °F 21.2 °F 64% 30.02 in 10.0 mi SSW 16.1 mph - N/A   Clear
7:35 AM 32.0 °F 20.5 °F 21.2 °F 64% 30.02 in 10.0 mi South 18.4 mph 24.2 mph N/A   Clear
7:55 AM 32.0 °F 20.5 °F 23.0 °F 69% 30.02 in 10.0 mi South 18.4 mph 26.5 mph N/A   Clear
8:15 AM 32.0 °F 20.5 °F 23.0 °F 69% 30.02 in 10.0 mi South 18.4 mph 25.3 mph N/A   Clear
8:35 AM 33.8 °F 22.5 °F 24.8 °F 70% 30.02 in 10.0 mi South 19.6 mph 26.5 mph N/A   Clear
8:55 AM 35.6 °F 25.9 °F 24.8 °F 65% 30.02 in 10.0 mi South 16.1 mph 28.8 mph N/A   Clear
9:15 AM 37.4 °F 27.5 °F 24.8 °F 60% 30.02 in 10.0 mi South 18.4 mph 27.6 mph N/A   Clear
9:35 AM 39.2 °F 29.0 °F 24.8 °F 56% 30.02 in 10.0 mi South 21.9 mph 27.6 mph N/A   Clear
9:55 AM 41.0 °F 31.6 °F 24.8 °F 53% 30.02 in 10.0 mi SSW 20.7 mph 28.8 mph N/A   Clear
10:15 AM 44.6 °F 35.7 °F 24.8 °F 46% 30.02 in 10.0 mi South 24.2 mph 31.1 mph N/A   Clear
10:35 AM 44.6 °F 36.6 °F 24.8 °F 46% 30.02 in 10.0 mi SSW 19.6 mph 26.5 mph N/A   Clear
10:55 AM 46.4 °F 38.1 °F 26.6 °F 46% 30.03 in 10.0 mi South 24.2 mph - N/A   Clear
11:15 AM 46.4 °F 39.2 °F 26.6 °F 46% 30.02 in 10.0 mi South 18.4 mph 24.2 mph N/A   Clear
11:35 AM 48.2 °F - 26.6 °F 43% 30.02 in 10.0 mi South 17.3 mph 25.3 mph N/A   Clear
11:55 AM 50.0 °F - 26.6 °F 40% 30.00 in 10.0 mi South 19.6 mph 25.3 mph N/A   Clear
12:15 PM 51.8 °F - 26.6 °F 38% 29.99 in 10.0 mi South 19.6 mph 25.3 mph N/A   Clear
12:35 PM 53.6 °F - 26.6 °F 35% 29.98 in 10.0 mi South 20.7 mph 24.2 mph N/A   Clear
12:55 PM 53.6 °F - 26.6 °F 35% 29.96 in 10.0 mi South 19.6 mph 25.3 mph N/A   Clear
1:15 PM 55.4 °F - 26.6 °F 33% 29.94 in 10.0 mi South 17.3 mph 24.2 mph N/A   Clear
1:35 PM 57.2 °F - 26.6 °F 31% 29.92 in 10.0 mi South 15.0 mph 25.3 mph N/A   Clear
1:55 PM 59.0 °F - 26.6 °F 29% 29.91 in 10.0 mi SSW 20.7 mph 27.6 mph N/A   Clear
2:15 PM 59.0 °F - 26.6 °F 29% 29.90 in 10.0 mi South 18.4 mph 21.9 mph N/A   Clear
2:35 PM 60.8 °F - 28.4 °F 29% 29.89 in 10.0 mi SSW 17.3 mph 20.7 mph N/A   Clear
2:55 PM 62.6 °F - 28.4 °F 27% 29.88 in 10.0 mi South 18.4 mph 23.0 mph N/A   Clear
3:15 PM 60.8 °F - 28.4 °F 29% 29.87 in 10.0 mi SSW 16.1 mph 25.3 mph N/A   Clear
3:35 PM 62.6 °F - 28.4 °F 27% 29.87 in 10.0 mi South 17.3 mph 23.0 mph N/A   Clear
3:55 PM 62.6 °F - 28.4 °F 27% 29.86 in 10.0 mi South 13.8 mph - N/A   Clear
4:15 PM 62.6 °F - 28.4 °F 27% 29.86 in 10.0 mi SSW 17.3 mph 20.7 mph N/A   Clear
4:35 PM 60.8 °F - 28.4 °F 29% 29.86 in 10.0 mi South 15.0 mph - N/A   Clear
4:55 PM 60.8 °F - 28.4 °F 29% 29.86 in 10.0 mi South 17.3 mph - N/A   Clear
5:15 PM 59.0 °F - 28.4 °F 31% 29.86 in 10.0 mi South 16.1 mph - N/A   Clear
5:35 PM 59.0 °F - 28.4 °F 31% 29.86 in 10.0 mi South 15.0 mph 21.9 mph N/A   Clear
5:55 PM 57.2 °F - 28.4 °F 33% 29.86 in 10.0 mi South 13.8 mph - N/A   Clear
6:15 PM 53.6 °F - 30.2 °F 41% 29.87 in 10.0 mi South 11.5 mph - N/A   Clear
6:35 PM 53.6 °F - 30.2 °F 41% 29.87 in 10.0 mi SSW 10.4 mph - N/A   Clear
6:55 PM 51.8 °F - 30.2 °F 44% 29.88 in 10.0 mi SSW 8.1 mph - N/A   Clear
7:15 PM 51.8 °F - 32.0 °F 47% 29.88 in 10.0 mi SSW 9.2 mph - N/A   Clear
7:35 PM 50.0 °F - 32.0 °F 50% 29.88 in 10.0 mi SSW 6.9 mph - N/A   Clear
7:55 PM 46.4 °F 45.2 °F 32.0 °F 57% 29.89 in 10.0 mi SSW 3.5 mph - N/A   Clear
8:15 PM 46.4 °F 45.2 °F 32.0 °F 57% 29.90 in 10.0 mi SSW 3.5 mph - N/A   Clear
8:35 PM 46.4 °F 43.5 °F 32.0 °F 57% 29.91 in 10.0 mi SW 5.8 mph - N/A   Clear
8:55 PM 44.6 °F 40.7 °F 32.0 °F 61% 29.91 in 10.0 mi SW 6.9 mph - N/A   Clear
9:15 PM 44.6 °F - 32.0 °F 61% 29.91 in 10.0 mi Calm Calm - N/A   Clear
9:35 PM 42.8 °F - 32.0 °F 66% 29.91 in 10.0 mi Calm Calm - N/A   Clear
9:55 PM 42.8 °F 40.1 °F 30.2 °F 61% 29.91 in 10.0 mi South 4.6 mph - N/A   Clear
10:15 PM 42.8 °F 40.1 °F 32.0 °F 66% 29.91 in 10.0 mi South 4.6 mph - N/A   Clear
10:35 PM 42.8 °F - 32.0 °F 66% 29.91 in 10.0 mi Calm Calm - N/A   Clear
10:55 PM 41.0 °F - 32.0 °F 70% 29.90 in 10.0 mi Calm Calm - N/A   Clear
11:15 PM 39.2 °F 37.0 °F 32.0 °F 75% 29.90 in 10.0 mi SSW 3.5 mph - N/A   Clear
11:35 PM 41.0 °F 39.0 °F 32.0 °F 70% 29.89 in 10.0 mi SSW 3.5 mph - N/A   Clear
11:55 PM 37.4 °F - 30.2 °F 75% 29.89 in 10.0 mi Calm Calm - N/A   Clear